User: anonymous   Login
Location: Vancouver
(49.2500°N, 123.1330°W)
Time: 17:39:55
(UTC-08:00)
Language:

S-56A Canister/Altair - Orbit

View from above orbital plane
View from above orbital plane
View from above satellite
View from above satellite

Ground track
Ground track

The orbit data is extracted from the following two-line orbital elements,

1 00082U 61004B   14321.15073623  .00000279  00000-0  26321-3 0  7374
2 00082 038.8548 186.2752 1175931 324.7730 028.0440 12.25654053557549
Epoch (UTC): 17 November 2014 03:37:03
Eccentricity: 0.1175931
inclination: 38.8548°
perigee height: 633 km
apogee height: 2502 km
right ascension of ascending node: 186.2752°
argument of perigee: 324.7730°
revolutions per day: 12.25654053
mean anomaly at epoch: 28.0440°
orbit number at epoch: 55754

The dashed part of the orbit path shows where the satellite is in the earth's shadow,  

DLR